Weather in Lithgow

Australia     33°28′59″S   150°08′51″E
temp.,
°C
wind,
m/s
gust,
m/s
humid.,
%
clouds,
%
prec.,
mm/h
press.,
hPa
HPBL,
m
19 may, wed
wed1901:00+3wnw21840 0.0 102918
04:00+3wnw21860 0.0 102922
07:00+2wnw21830 0.0 103024
10:00+12wnw24380 0.0 1028628
13:00+15w23280 0.0 10251215
16:00+13w24425 0.0 1025282
19:00+6wnw22655 0.0 102820
22:00+4wnw21766 0.0 102924
20 may, thu
thu2001:00+3wnw227898 0.0 102828
04:00+3wnw228119 0.0 102841
07:00+2wnw23835 0.0 102961
10:00+12w364010 0.0 1026510
13:00+15wsw353318 0.0 10241042
16:00+13wsw264145 0.0 1025695
19:00+6w2274100 0.0 102934
22:00+4wsw118590 0.0 103014
21 may, fri
fri2101:00+4sw117759 0.0 103011
04:00+4s01779 0.0 103013
07:00+5se158969 0.0 1031131
10:00+10se3877100 0.1 1030830
13:00+11se367899 0.1 1028837
16:00+10se2694100 0.4 1028626
19:00+8se2899100 0.2 1030649
22:00+8se2899100 0.2 1030639
22 may, sat
sat2201:00+8se279999 0.0 1030513
04:00+6sse1410067 0.0 1029147
07:00+6sse019974 0.0 103084
10:00+12ese24710 0.0 1029574
13:00+15e335636 0.0 10261261
16:00+13ese237232 0.1 1026682
19:00+8se119723 0.0 102813
22:00+8ssw119771 0.0 102827
23 may, sun
sun2301:00+9sse129494 0.0 102783
04:00+7se119923 0.0 102713
07:00+6s019940 0.0 102911
10:00+10se1393100 0.1 1028293
13:00+11ese1594100 0.7 1026603
16:00+10se1599100 2.1 1026561
19:00+10ese1699100 1.5 1027563
22:00+8ese249990 1.8 1028207